(159405) = 1999 JG110 = 2004 YO10

Discovered at Socorro on 1999-05-13 by LINEAR.

Orbit

Orbit type: Main Belt

Note: WebGL enabled browser required.

epoch2023-02-25.0
epoch JD2460000.5
perihelion date2020-02-03.51148
perihelion JD2458883.01148
argument of perihelion (°)55.98117
ascending node (°)246.47606
inclination (°)11.59334
eccentricity0.2922437
perihelion distance (AU)1.7976198
Tisserand w.r.t. Jupiter3.4
ΔV w.r.t. Earth (km/sec)9.1
semimajor axis (AU)2.5398852
mean anomaly (°)272.09828
mean daily motion (°/day)0.24349090
aphelion distance (AU)3.282
period (years)4.05
P-vector [x]0.52116546
P-vector [y]-0.83422965
P-vector [z]-0.18013178
Q-vector [x]0.83332698
Q-vector [y]0.45184169
Q-vector [z]0.31844189
absolute magnitude16.14
phase slope0.15
uncertainty0
referenceMPO 745323
observations used492
oppositions17
arc length (days)8796
first opposition used1999
last opposition used2023
residual rms (arc-secs)0.78
perturbers coarse indicatorM-v
perturbers precise indicator003Ek
first observation date used1999-05-13.0
last observation date used2023-06-12.0
computer nameMPCLINUX
JD of orbit computation2456700.380817
perihelion JD uncertainty (days)8.5333E-05
argument of perihelion uncertainty (°)2.5970E-05
ascending node uncertainty (°)1.8989E-05
inclination uncertainty (°)7.7471E-06
eccentricity uncertainty 4.2694E-08
perihelion distance uncertainty (AU)1.0328E-07
Minimum Orbit Intersection Distances (in AU)
for orbit epoch: 2460000.5, reference: E2023-L69
Mercury1.37288
Venus1.09401
Earth0.81029
Mars0.43843
Jupiter2.03274
Saturn5.88345
Uranus15.3675
Neptune26.9771

Observations

513 total observations over interval: 1999 05 13.23572 – 2023 06 12.174495
These data are available for download (format description).

Date (UT) J2000 RA J2000 Dec Magn Location Ref
1999 05 13.23572 15 09 04.36 -23 44 19.9 18.7   704 – Lincoln Laboratory ETS, New Mexico MPS 5193
1999 05 13.25086 15 09 03.43 -23 44 11.3 18.7   704 – Lincoln Laboratory ETS, New Mexico MPS 5193
1999 05 13.25517 15 09 03.22 -23 44 07.7 18.3 R 699 – Lowell Observatory-LONEOS MPS 60815
1999 05 13.26596 15 09 02.51 -23 44 00.1 18.9   704 – Lincoln Laboratory ETS, New Mexico MPS 5193
1999 05 13.28064 15 09 01.73 -23 43 51.4   699 – Lowell Observatory-LONEOS MPS 60815
1999 05 13.28110 15 09 01.72 -23 43 48.9 19.1   704 – Lincoln Laboratory ETS, New Mexico MPS 5193
1999 05 13.30610 15 09 00.32 -23 43 34.8   699 – Lowell Observatory-LONEOS MPS 60815
1999 05 18.22427 15 04 28.81 -22 49 06.1 18.4   704 – Lincoln Laboratory ETS, New Mexico MPS 5193
1999 05 18.23834 15 04 27.85 -22 48 56.8 18.4   704 – Lincoln Laboratory ETS, New Mexico MPS 5193
1999 05 18.26643 15 04 26.24 -22 48 38.3 18.7   704 – Lincoln Laboratory ETS, New Mexico MPS 5193
1999 05 18.28044 15 04 25.54 -22 48 26.3 18.5   704 – Lincoln Laboratory ETS, New Mexico MPS 5193
1999 05 18.32990 15 04 22.73 -22 47 54.2 18.6 R 699 – Lowell Observatory-LONEOS MPS 5617
1999 05 18.35027 15 04 21.51 -22 47 38.6   699 – Lowell Observatory-LONEOS MPS 5617
1999 05 18.37064 15 04 20.37 -22 47 25.5   699 – Lowell Observatory-LONEOS MPS 5617
1999 06 06.24586 14 50 08.02 -19 08 05.3 18.5 R 699 – Lowell Observatory-LONEOS MPS 134694
1999 06 06.25858 14 50 07.67 -19 07 57.2   699 – Lowell Observatory-LONEOS MPS 134694
1999 06 06.27131 14 50 07.25 -19 07 49.6   699 – Lowell Observatory-LONEOS MPS 134694
1999 06 15.16996 14 46 39.78 -17 34 37.5 19.3   704 – Lincoln Laboratory ETS, New Mexico MPS 134694
1999 06 15.18212 14 46 39.58 -17 34 30.8 19.2   704 – Lincoln Laboratory ETS, New Mexico MPS 134694
1999 06 15.19425 14 46 39.32 -17 34 23.7 19.3   704 – Lincoln Laboratory ETS, New Mexico MPS 134694
1999 06 15.20646 14 46 39.15 -17 34 16.5 19.5   704 – Lincoln Laboratory ETS, New Mexico MPS 134694
1999 06 15.21859 14 46 38.94 -17 34 10.2 19.1   704 – Lincoln Laboratory ETS, New Mexico MPS 134694
2000 11 30.41882 04 22 22.75 +21 14 38.7 19.8 V 691 – Steward Observatory, Kitt Peak-Spacewatch MPS 134694
2000 11 30.44099 04 22 21.33 +21 14 30.3 20.0 V 691 – Steward Observatory, Kitt Peak-Spacewatch MPS 134694
2000 11 30.46355 04 22 19.87 +21 14 22.2 19.6 V 691 – Steward Observatory, Kitt Peak-Spacewatch MPS 134694
2002 02 13.243410 08 34 22.488 +02 55 15.49 20.96 V 645 – Apache Point-Sloan Digital Sky Survey MPS 134694
2002 02 13.246882 08 34 22.301 +02 55 16.30 21.66   645 – Apache Point-Sloan Digital Sky Survey MPS 134694
2003 03 31.42536 14 46 04.01 -27 09 44.1 20.1   644 – Palomar Mountain/NEAT MPS 134694
2003 03 31.45030 14 46 03.42 -27 09 41.3 20.1   644 – Palomar Mountain/NEAT MPS 134694
2003 03 31.46739 14 46 03.06 -27 09 39.5 20.1   644 – Palomar Mountain/NEAT MPS 134694
2003 04 30.26468 14 25 09.84 -24 15 30.6 18.1   704 – Lincoln Laboratory ETS, New Mexico MPS 134694
2003 04 30.27663 14 25 09.15 -24 15 23.5 18.7   704 – Lincoln Laboratory ETS, New Mexico MPS 134694
2003 04 30.28859 14 25 08.45 -24 15 16.8 18.8   704 – Lincoln Laboratory ETS, New Mexico MPS 134694
2003 04 30.30056 14 25 07.75 -24 15 10.6 18.5   704 – Lincoln Laboratory ETS, New Mexico MPS 134694
2003 04 30.31255 14 25 07.05 -24 15 03.9 18.9   704 – Lincoln Laboratory ETS, New Mexico MPS 134694
2003 05 24.31446 14 05 08.84 -19 49 10.9 20.7   608 – Haleakala-AMOS MPS 134695
2003 05 24.32543 14 05 08.40 -19 49 03.1 19.9   608 – Haleakala-AMOS MPS 134695
2003 05 24.33657 14 05 07.96 -19 48 54.9 20.4   608 – Haleakala-AMOS MPS 134695
2004 11 04.42939 04 26 20.96 +24 04 31.3 20.0 V 691 – Steward Observatory, Kitt Peak-Spacewatch MPS 134695
2004 11 04.46364 04 26 19.06 +24 04 19.7 20.1 V 691 – Steward Observatory, Kitt Peak-Spacewatch MPS 134695
2004 11 04.49988 04 26 17.05 +24 04 07.3 19.8 V 691 – Steward Observatory, Kitt Peak-Spacewatch MPS 134695
2004 12 18.28263 03 44 05.46 +19 26 06.7 19.2 R G96 – Mt. Lemmon Survey MPS 122880
2004 12 18.29248 03 44 04.95 +19 26 02.7 19.1 R G96 – Mt. Lemmon Survey MPS 122880
2004 12 18.30236 03 44 04.61 +19 26 00.4 19.3 R G96 – Mt. Lemmon Survey MPS 122880
2004 12 18.31216 03 44 04.16 +19 25 56.5 19.5 R G96 – Mt. Lemmon Survey MPS 122880
2004 12 19.26440 03 43 26.32 +19 20 38.7 19.2 R G96 – Mt. Lemmon Survey MPS 122880
2004 12 19.27428 03 43 25.84 +19 20 36.5 19.0 R G96 – Mt. Lemmon Survey MPS 122880
2004 12 19.28414 03 43 25.53 +19 20 33.1 19.5 R G96 – Mt. Lemmon Survey MPS 122880
2004 12 19.29393 03 43 25.09 +19 20 29.2 20.6 R G96 – Mt. Lemmon Survey MPS 122880
2007 04 16.60204 13 58 54.48 -24 32 44.7 18.8 V E12 – Siding Spring Survey MPS 206771
2007 04 16.61236 13 58 53.90 -24 32 38.2 18.6 V E12 – Siding Spring Survey MPS 206771
2007 04 16.62284 13 58 53.36 -24 32 33.9 19.1 V E12 – Siding Spring Survey MPS 206771
2007 04 16.63309 13 58 52.75 -24 32 30.4 18.9 V E12 – Siding Spring Survey MPS 206771
2007 06 15.44508 13 28 17.90 -14 50 49.2 19.3 V E12 – Siding Spring Survey MPS 211022
2007 06 15.45316 13 28 18.01 -14 50 45.4 19.4 V E12 – Siding Spring Survey MPS 211022
2007 06 15.46130 13 28 18.15 -14 50 43.0 19.2 V E12 – Siding Spring Survey MPS 211022
2007 06 15.46947 13 28 18.30 -14 50 39.2 20.1 V E12 – Siding Spring Survey MPS 211022
2008 10 20.36089 04 15 04.56 +25 40 49.7 19.9 V 691 – Steward Observatory, Kitt Peak-Spacewatch MPS 261192
2008 10 20.36335 04 15 04.46 +25 40 49.7 20.3 V 691 – Steward Observatory, Kitt Peak-Spacewatch MPS 261192
2008 10 20.37854 04 15 03.84 +25 40 45.2 20.1 V 691 – Steward Observatory, Kitt Peak-Spacewatch MPS 261192
2008 10 20.38101 04 15 03.75 +25 40 45.2 20.0 V 691 – Steward Observatory, Kitt Peak-Spacewatch MPS 261192
2008 10 20.39620 04 15 03.13 +25 40 40.8 20.0 V 691 – Steward Observatory, Kitt Peak-Spacewatch MPS 261192
2008 10 20.39867 04 15 03.03 +25 40 40.4 20.0 V 691 – Steward Observatory, Kitt Peak-Spacewatch MPS 261192
2008 10 24.33940 04 12 19.64 +25 22 18.2 20.0 V 691 – Steward Observatory, Kitt Peak-Spacewatch MPS 261192
2008 10 24.35513 04 12 18.93 +25 22 14.5 21.4 V 691 – Steward Observatory, Kitt Peak-Spacewatch MPS 261192
2008 10 24.37128 04 12 18.15 +25 22 08.9 20.0 V 691 – Steward Observatory, Kitt Peak-Spacewatch MPS 261192
2008 10 28.32243 04 09 09.86 +25 01 39.6 19.9 V 691 – Steward Observatory, Kitt Peak-Spacewatch MPS 262910
2008 10 28.34015 04 09 08.92 +25 01 34.0 20.0 V 691 – Steward Observatory, Kitt Peak-Spacewatch MPS 262910
2008 10 28.35786 04 09 07.98 +25 01 28.7 19.9 V 691 – Steward Observatory, Kitt Peak-Spacewatch MPS 262910
2008 10 30.581650 04 07 12.186 +24 49 03.85 19.77 g F51 – Pan-STARRS 1, Haleakala MPS 288948
2008 10 30.592927 04 07 11.566 +24 48 59.98 19.90 g F51 – Pan-STARRS 1, Haleakala MPS 288948
2008 11 03.567145 04 03 30.329 +24 25 18.30 19.61 r F51 – Pan-STARRS 1, Haleakala MPS 288948
2008 11 03.578572 04 03 29.641 +24 25 13.77 19.60 r F51 – Pan-STARRS 1, Haleakala MPS 288948
2008 11 06.568584 04 00 33.022 +24 06 12.58 19.35 r F51 – Pan-STARRS 1, Haleakala MPS 288948
2008 11 06.580290 04 00 32.294 +24 06 07.95 19.45 r F51 – Pan-STARRS 1, Haleakala MPS 288948
2008 11 09.32773 03 57 44.36 +23 47 50.3 19.7 V 691 – Steward Observatory, Kitt Peak-Spacewatch MPS 265096
2008 11 09.34883 03 57 43.01 +23 47 41.8 19.8 V 691 – Steward Observatory, Kitt Peak-Spacewatch MPS 265096
2008 11 09.36647 03 57 41.87 +23 47 34.6 20.6 V 691 – Steward Observatory, Kitt Peak-Spacewatch MPS 265096
2008 11 19.21885 03 47 16.94 +22 37 03.9 19.2 V G96 – Mt. Lemmon Survey MPS 266218
2008 11 19.22451 03 47 16.58 +22 37 01.2 19.2 V G96 – Mt. Lemmon Survey MPS 266218
2008 11 19.23015 03 47 16.22 +22 36 59.0 19.3 V G96 – Mt. Lemmon Survey MPS 266218
2008 11 19.23583 03 47 15.82 +22 36 56.4 19.1 V G96 – Mt. Lemmon Survey MPS 266218
2008 11 20.32794 03 46 06.19 +22 28 50.2 19.4   704 – Lincoln Laboratory ETS, New Mexico MPS 266218
2008 11 20.34044 03 46 05.36 +22 28 42.8 19.6   704 – Lincoln Laboratory ETS, New Mexico MPS 266218
2008 11 20.35301 03 46 04.54 +22 28 36.9 20.0   704 – Lincoln Laboratory ETS, New Mexico MPS 266218
2008 11 20.36559 03 46 03.75 +22 28 31.0 19.4   704 – Lincoln Laboratory ETS, New Mexico MPS 266218
